COSMOS 2384

导读 | 星芒AI

COSMOS 2384 是俄罗斯于1996年发射的一颗军用通信卫星,搭载于“联盟”号火箭,任务涉及军事通信与情报传输。该卫星属于俄罗斯长期部署的军事卫星系统,用于支持战略指挥与控制。由于其军事用途,具体技术细节和任务内容未公开。COSMOS 2384 在轨运行多年,体现了俄罗斯在军事航天领域的持续发展。

基本信息
目录编号:
27055
目录名称:
COSMOS 2384
国际标识:
2001-058A
轨道中心:
EARTH
卫星名称:
COSMOS 2384
卫星全名:
--
卫星状态:
在轨 (已飞行8706 天)
发射日期:
2001-12-28 UTC
国别 :
俄罗斯(独联体) (CIS)
星等 :
--
轨道信息
数据来源 国际轨道数据
星历时间: 2025-10-28T22:51:04+0800
16小时前
查看轨道信息
半长轴: 7801.56km
偏心率: 0.0010904
轨道倾角: 82.551°
近地点辐角 61.723°
升交点赤经 21.345°
平近点角 298.496°
近地点: 1414.918km
远地点: 1431.932km
周期: 114.296分钟
每日圈数: 12.598841
详细信息
使用方式:
暂无
2D轨道图
3D轨道图
轨道高度分析图
轨道倾角分析图
轨道综合分析图
查看轨道综合分析图